owner,sensor,date,latitude,longitude,air_pressure(mBar),qcFlag 
COMPS,ioos:station:USF.COMPS:C13:1,2016-10-01T00:05:00Z,26.0630,-83.0730,1013.21,1111122 
COMPS,ioos:station:USF.COMPS:C13:1,2016-10-01T00:35:00Z,26.0630,-83.0730,1013.43,1111122 
COMPS,ioos:station:USF.COMPS:C13:1,2016-10-01T01:05:00Z,26.0630,-83.0730,1013.8,1111122 
COMPS,ioos:station:USF.COMPS:C13:1,2016-10-01T01:35:00Z,26.0630,-83.0730,1014.0,1111122 
COMPS,ioos:station:USF.COMPS:C13:1,2016-10-01T02:05:00Z,26.0630,-83.0730,1013.99,1111122 
COMPS,ioos:station:USF.COMPS:C13:1,2016-10-01T02:35:00Z,26.0630,-83.0730,1014.19,1111122 
COMPS,ioos:station:USF.COMPS:C13:1,2016-10-01T03:05:00Z,26.0630,-83.0730,1014.32,1111122 
COMPS,ioos:station:USF.COMPS:C13:1,2016-10-01T03:35:00Z,26.0630,-83.0730,1014.58,1111122 
COMPS,ioos:station:USF.COMPS:C13:1,2016-10-01T04:05:00Z,26.0630,-83.0730,1014.36,1111122 
COMPS,ioos:station:USF.COMPS:C13:1,2016-10-01T04:35:00Z,26.0630,-83.0730,1014.23,1111122 
COMPS,ioos:station:USF.COMPS:C13:1,2016-10-01T05:05:00Z,26.0630,-83.0730,1013.91,1111122 
COMPS,ioos:station:USF.COMPS:C13:1,2016-10-01T05:35:00Z,26.0630,-83.0730,1013.81,1111122 
COMPS,ioos:station:USF.COMPS:C13:1,2016-10-01T06:05:00Z,26.0630,-83.0730,1013.55,1111122 
COMPS,ioos:station:USF.COMPS:C13:1,2016-10-01T06:35:00Z,26.0630,-83.0730,1013.19,1111122 
COMPS,ioos:station:USF.COMPS:C13:1,2016-10-01T07:05:00Z,26.0630,-83.0730,1012.9,1111122 
COMPS,ioos:station:USF.COMPS:C13:1,2016-10-01T07:35:00Z,26.0630,-83.0730,1012.87,1111122 
COMPS,ioos:station:USF.COMPS:C13:1,2016-10-01T08:05:00Z,26.0630,-83.0730,1012.6,1111122 
COMPS,ioos:station:USF.COMPS:C13:1,2016-10-01T08:35:00Z,26.0630,-83.0730,1012.63,1111122 
COMPS,ioos:station:USF.COMPS:C13:1,2016-10-01T09:05:00Z,26.0630,-83.0730,1012.5,1111122 
COMPS,ioos:station:USF.COMPS:C13:1,2016-10-01T09:35:00Z,26.0630,-83.0730,1012.16,1111122 
COMPS,ioos:station:USF.COMPS:C13:1,2016-10-01T10:05:00Z,26.0630,-83.0730,1012.5,1111122 
COMPS,ioos:station:USF.COMPS:C13:1,2016-10-01T10:35:00Z,26.0630,-83.0730,1013.14,1111122 
COMPS,ioos:station:USF.COMPS:C13:1,2016-10-01T11:05:00Z,26.0630,-83.0730,1013.46,1111122 
COMPS,ioos:station:USF.COMPS:C13:1,2016-10-01T11:35:00Z,26.0630,-83.0730,1013.67,1111122 
COMPS,ioos:station:USF.COMPS:C13:1,2016-10-01T12:05:00Z,26.0630,-83.0730,1013.43,1111122 
COMPS,ioos:station:USF.COMPS:C13:1,2016-10-01T12:35:00Z,26.0630,-83.0730,1013.9,1111122 
COMPS,ioos:station:USF.COMPS:C13:1,2016-10-01T13:05:00Z,26.0630,-83.0730,1014.33,1111122 
COMPS,ioos:station:USF.COMPS:C13:1,2016-10-01T13:35:00Z,26.0630,-83.0730,1014.76,1111122 
COMPS,ioos:station:USF.COMPS:C13:1,2016-10-01T14:05:00Z,26.0630,-83.0730,1014.62,1111122 
COMPS,ioos:station:USF.COMPS:C13:1,2016-10-01T14:35:00Z,26.0630,-83.0730,1014.65,1111122 
COMPS,ioos:station:USF.COMPS:C13:1,2016-10-01T15:05:00Z,26.0630,-83.0730,1014.55,1111122 
COMPS,ioos:station:USF.COMPS:C13:1,2016-10-01T15:35:00Z,26.0630,-83.0730,1014.46,1111122 
COMPS,ioos:station:USF.COMPS:C13:1,2016-10-01T16:05:00Z,26.0630,-83.0730,1014.47,1111122 
COMPS,ioos:station:USF.COMPS:C13:1,2016-10-01T16:35:00Z,26.0630,-83.0730,1014.12,1111122 
COMPS,ioos:station:USF.COMPS:C13:1,2016-10-01T18:05:00Z,26.0630,-83.0730,1013.25,1111122 
COMPS,ioos:station:USF.COMPS:C13:1,2016-10-01T18:35:00Z,26.0630,-83.0730,1012.9,1111122 
COMPS,ioos:station:USF.COMPS:C13:1,2016-10-01T19:05:00Z,26.0630,-83.0730,1012.71,1111122 
COMPS,ioos:station:USF.COMPS:C13:1,2016-10-01T19:35:00Z,26.0630,-83.0730,1012.55,1111122 
COMPS,ioos:station:USF.COMPS:C13:1,2016-10-01T20:05:00Z,26.0630,-83.0730,1012.2,1111122 
COMPS,ioos:station:USF.COMPS:C13:1,2016-10-01T20:35:00Z,26.0630,-83.0730,1011.99,1111122 
COMPS,ioos:station:USF.COMPS:C13:1,2016-10-01T22:05:00Z,26.0630,-83.0730,1011.74,1111122 
COMPS,ioos:station:USF.COMPS:C13:1,2016-10-01T22:35:00Z,26.0630,-83.0730,1011.95,1111122 
COMPS,ioos:station:USF.COMPS:C13:1,2016-10-01T23:05:00Z,26.0630,-83.0730,1012.04,1111122 
COMPS,ioos:station:USF.COMPS:C13:1,2016-10-01T23:35:00Z,26.0630,-83.0730,1012.28,1111122 
COMPS,ioos:station:USF.COMPS:C13:1,2016-10-02T00:05:00Z,26.0630,-83.0730,1012.5,1111122 
COMPS,ioos:station:USF.COMPS:C13:1,2016-10-02T00:35:00Z,26.0630,-83.0730,1012.58,1111122 
COMPS,ioos:station:USF.COMPS:C13:1,2016-10-02T02:05:00Z,26.0630,-83.0730,1012.71,1111122 
COMPS,ioos:station:USF.COMPS:C13:1,2016-10-02T02:35:00Z,26.0630,-83.0730,1013.06,1111122 
COMPS,ioos:station:USF.COMPS:C13:1,2016-10-02T03:05:00Z,26.0630,-83.0730,1013.37,1111122 
COMPS,ioos:station:USF.COMPS:C13:1,2016-10-02T03:35:00Z,26.0630,-83.0730,1013.17,1111122 
COMPS,ioos:station:USF.COMPS:C13:1,2016-10-02T04:05:00Z,26.0630,-83.0730,1013.04,1111122 
COMPS,ioos:station:USF.COMPS:C13:1,2016-10-02T04:35:00Z,26.0630,-83.0730,1013.18,1111122 
COMPS,ioos:station:USF.COMPS:C13:1,2016-10-02T06:05:00Z,26.0630,-83.0730,1013.01,1111122 
COMPS,ioos:station:USF.COMPS:C13:1,2016-10-02T06:35:00Z,26.0630,-83.0730,1012.6,1111122 
COMPS,ioos:station:USF.COMPS:C13:1,2016-10-02T07:05:00Z,26.0630,-83.0730,1012.1,1111122 
COMPS,ioos:station:USF.COMPS:C13:1,2016-10-02T07:35:00Z,26.0630,-83.0730,1011.92,1111122 
COMPS,ioos:station:USF.COMPS:C13:1,2016-10-02T08:05:00Z,26.0630,-83.0730,1011.55,1111122 
COMPS,ioos:station:USF.COMPS:C13:1,2016-10-02T08:35:00Z,26.0630,-83.0730,1011.42,1111122 
COMPS,ioos:station:USF.COMPS:C13:1,2016-10-02T12:05:00Z,26.0630,-83.0730,1011.89,1111122 
COMPS,ioos:station:USF.COMPS:C13:1,2016-10-02T12:35:00Z,26.0630,-83.0730,1011.96,1111122 
COMPS,ioos:station:USF.COMPS:C13:1,2016-10-02T13:05:00Z,26.0630,-83.0730,1012.29,1111122 
COMPS,ioos:station:USF.COMPS:C13:1,2016-10-02T13:35:00Z,26.0630,-83.0730,1012.82,1111122 
COMPS,ioos:station:USF.COMPS:C13:1,2016-10-02T14:05:00Z,26.0630,-83.0730,1013.0,1111122 
COMPS,ioos:station:USF.COMPS:C13:1,2016-10-02T14:35:00Z,26.0630,-83.0730,1013.32,1111122 
COMPS,ioos:station:USF.COMPS:C13:1,2016-10-02T16:05:00Z,26.0630,-83.0730,1012.9,1111122 
COMPS,ioos:station:USF.COMPS:C13:1,2016-10-02T16:35:00Z,26.0630,-83.0730,1012.66,1111122 
COMPS,ioos:station:USF.COMPS:C13:1,2016-10-02T20:05:00Z,26.0630,-83.0730,1010.16,1111122 
COMPS,ioos:station:USF.COMPS:C13:1,2016-10-02T20:35:00Z,26.0630,-83.0730,1009.79,1111122 
COMPS,ioos:station:USF.COMPS:C13:1,2016-10-02T21:05:00Z,26.0630,-83.0730,1009.42,1111122 
COMPS,ioos:station:USF.COMPS:C13:1,2016-10-02T21:35:00Z,26.0630,-83.0730,1009.68,1111122 
COMPS,ioos:station:USF.COMPS:C13:1,2016-10-02T23:05:00Z,26.0630,-83.0730,1010.04,1111122 
COMPS,ioos:station:USF.COMPS:C13:1,2016-10-02T23:35:00Z,26.0630,-83.0730,1010.2,1111122 
COMPS,ioos:station:USF.COMPS:C13:1,2016-10-03T00:05:00Z,26.0630,-83.0730,1010.67,1111122 
COMPS,ioos:station:USF.COMPS:C13:1,2016-10-03T00:35:00Z,26.0630,-83.0730,1011.01,1111122 
COMPS,ioos:station:USF.COMPS:C13:1,2016-10-03T01:05:00Z,26.0630,-83.0730,1011.21,1111122 
COMPS,ioos:station:USF.COMPS:C13:1,2016-10-03T02:05:00Z,26.0630,-83.0730,1011.66,1111122 
COMPS,ioos:station:USF.COMPS:C13:1,2016-10-03T02:35:00Z,26.0630,-83.0730,1011.2,1111122 
COMPS,ioos:station:USF.COMPS:C13:1,2016-10-03T03:05:00Z,26.0630,-83.0730,1011.23,1111122 
COMPS,ioos:station:USF.COMPS:C13:1,2016-10-03T03:35:00Z,26.0630,-83.0730,1011.08,1111122 
COMPS,ioos:station:USF.COMPS:C13:1,2016-10-03T07:05:00Z,26.0630,-83.0730,1009.23,1111122 
COMPS,ioos:station:USF.COMPS:C13:1,2016-10-03T07:35:00Z,26.0630,-83.0730,1008.86,1111122 
COMPS,ioos:station:USF.COMPS:C13:1,2016-10-03T10:05:00Z,26.0630,-83.0730,1008.59,1111122 
COMPS,ioos:station:USF.COMPS:C13:1,2016-10-03T10:35:00Z,26.0630,-83.0730,1008.2,1111122 
COMPS,ioos:station:USF.COMPS:C13:1,2016-10-03T11:05:00Z,26.0630,-83.0730,1008.29,1111122 
COMPS,ioos:station:USF.COMPS:C13:1,2016-10-03T11:35:00Z,26.0630,-83.0730,1008.47,1111122 
COMPS,ioos:station:USF.COMPS:C13:1,2016-10-03T12:05:00Z,26.0630,-83.0730,1008.49,1111122 
COMPS,ioos:station:USF.COMPS:C13:1,2016-10-03T12:35:00Z,26.0630,-83.0730,1008.38,1111122 
COMPS,ioos:station:USF.COMPS:C13:1,2016-10-03T13:05:00Z,26.0630,-83.0730,1008.65,1111122 
COMPS,ioos:station:USF.COMPS:C13:1,2016-10-03T13:35:00Z,26.0630,-83.0730,1008.63,1111122 
COMPS,ioos:station:USF.COMPS:C13:1,2016-10-03T14:05:00Z,26.0630,-83.0730,1009.23,1111122 
COMPS,ioos:station:USF.COMPS:C13:1,2016-10-03T14:35:00Z,26.0630,-83.0730,1008.89,1111122 
COMPS,ioos:station:USF.COMPS:C13:1,2016-10-03T15:05:00Z,26.0630,-83.0730,1009.21,1111122 
COMPS,ioos:station:USF.COMPS:C13:1,2016-10-03T15:35:00Z,26.0630,-83.0730,1009.21,1111122 
COMPS,ioos:station:USF.COMPS:C13:1,2016-10-03T17:05:00Z,26.0630,-83.0730,1008.85,1111122 
COMPS,ioos:station:USF.COMPS:C13:1,2016-10-03T17:35:00Z,26.0630,-83.0730,1008.33,1111122 
COMPS,ioos:station:USF.COMPS:C13:1,2016-10-03T18:05:00Z,26.0630,-83.0730,1007.89,1111122 
COMPS,ioos:station:USF.COMPS:C13:1,2016-10-03T18:35:00Z,26.0630,-83.0730,1007.61,1111122 
COMPS,ioos:station:USF.COMPS:C13:1,2016-10-03T19:05:00Z,26.0630,-83.0730,1007.51,1111122 
COMPS,ioos:station:USF.COMPS:C13:1,2016-10-03T19:35:00Z,26.0630,-83.0730,1008.27,1111122 
COMPS,ioos:station:USF.COMPS:C13:1,2016-10-03T20:05:00Z,26.0630,-83.0730,1008.45,1111122 
COMPS,ioos:station:USF.COMPS:C13:1,2016-10-03T20:35:00Z,26.0630,-83.0730,1008.33,1111122 
COMPS,ioos:station:USF.COMPS:C13:1,2016-10-03T21:05:00Z,26.0630,-83.0730,1008.31,1111122 
COMPS,ioos:station:USF.COMPS:C13:1,2016-10-03T21:35:00Z,26.0630,-83.0730,1009.07,1111122 
COMPS,ioos:station:USF.COMPS:C13:1,2016-10-03T22:05:00Z,26.0630,-83.0730,1008.71,1111122 
COMPS,ioos:station:USF.COMPS:C13:1,2016-10-03T22:35:00Z,26.0630,-83.0730,1007.45,1111122 
COMPS,ioos:station:USF.COMPS:C13:1,2016-10-03T23:05:00Z,26.0630,-83.0730,1006.98,1111122 
COMPS,ioos:station:USF.COMPS:C13:1,2016-10-03T23:35:00Z,26.0630,-83.0730,1007.39,1111122 
COMPS,ioos:station:USF.COMPS:C13:1,2016-10-04T00:05:00Z,26.0630,-83.0730,1007.87,1111122 
COMPS,ioos:station:USF.COMPS:C13:1,2016-10-04T00:35:00Z,26.0630,-83.0730,1007.84,1111122 
COMPS,ioos:station:USF.COMPS:C13:1,2016-10-04T01:05:00Z,26.0630,-83.0730,1008.25,1111122 
COMPS,ioos:station:USF.COMPS:C13:1,2016-10-04T01:35:00Z,26.0630,-83.0730,1008.56,1111122 
COMPS,ioos:station:USF.COMPS:C13:1,2016-10-04T03:05:00Z,26.0630,-83.0730,1008.58,1111122 
COMPS,ioos:station:USF.COMPS:C13:1,2016-10-04T03:35:00Z,26.0630,-83.0730,1008.21,1111122 
COMPS,ioos:station:USF.COMPS:C13:1,2016-10-04T09:05:00Z,26.0630,-83.0730,1006.6,1111122 
COMPS,ioos:station:USF.COMPS:C13:1,2016-10-04T09:35:00Z,26.0630,-83.0730,1006.81,1111122 
COMPS,ioos:station:USF.COMPS:C13:1,2016-10-04T13:05:00Z,26.0630,-83.0730,1008.24,1111122 
COMPS,ioos:station:USF.COMPS:C13:1,2016-10-04T13:35:00Z,26.0630,-83.0730,1008.58,1111122 
COMPS,ioos:station:USF.COMPS:C13:1,2016-10-04T15:05:00Z,26.0630,-83.0730,1009.02,1111122 
COMPS,ioos:station:USF.COMPS:C13:1,2016-10-04T15:35:00Z,26.0630,-83.0730,1008.95,1111122 
COMPS,ioos:station:USF.COMPS:C13:1,2016-10-04T17:05:00Z,26.0630,-83.0730,1008.48,1111122 
COMPS,ioos:station:USF.COMPS:C13:1,2016-10-04T17:35:00Z,26.0630,-83.0730,1008.31,1111122 
COMPS,ioos:station:USF.COMPS:C13:1,2016-10-04T19:05:00Z,26.0630,-83.0730,1007.09,1111122 
COMPS,ioos:station:USF.COMPS:C13:1,2016-10-04T19:35:00Z,26.0630,-83.0730,1007.01,1111122 
COMPS,ioos:station:USF.COMPS:C13:1,2016-10-04T20:05:00Z,26.0630,-83.0730,1006.96,1111122 
COMPS,ioos:station:USF.COMPS:C13:1,2016-10-04T20:35:00Z,26.0630,-83.0730,1006.96,1111122 
COMPS,ioos:station:USF.COMPS:C13:1,2016-10-04T21:05:00Z,26.0630,-83.0730,1006.8,1111122 
COMPS,ioos:station:USF.COMPS:C13:1,2016-10-04T21:35:00Z,26.0630,-83.0730,1006.75,1111122 
COMPS,ioos:station:USF.COMPS:C13:1,2016-10-04T22:05:00Z,26.0630,-83.0730,1006.69,1111122 
COMPS,ioos:station:USF.COMPS:C13:1,2016-10-04T22:35:00Z,26.0630,-83.0730,1006.68,1111122 
COMPS,ioos:station:USF.COMPS:C13:1,2016-10-04T23:05:00Z,26.0630,-83.0730,1006.94,1111122 
COMPS,ioos:station:USF.COMPS:C13:1,2016-10-04T23:35:00Z,26.0630,-83.0730,1007.21,1111122 
COMPS,ioos:station:USF.COMPS:C13:1,2016-10-05T00:05:00Z,26.0630,-83.0730,1007.65,1111122 
COMPS,ioos:station:USF.COMPS:C13:1,2016-10-05T00:35:00Z,26.0630,-83.0730,1007.92,1111122 
COMPS,ioos:station:USF.COMPS:C13:1,2016-10-05T01:05:00Z,26.0630,-83.0730,1008.3,1111122 
COMPS,ioos:station:USF.COMPS:C13:1,2016-10-05T01:35:00Z,26.0630,-83.0730,1008.31,1111122 
COMPS,ioos:station:USF.COMPS:C13:1,2016-10-05T02:05:00Z,26.0630,-83.0730,1008.54,1111122 
COMPS,ioos:station:USF.COMPS:C13:1,2016-10-05T02:35:00Z,26.0630,-83.0730,1008.48,1111122 
COMPS,ioos:station:USF.COMPS:C13:1,2016-10-05T03:05:00Z,26.0630,-83.0730,1008.84,1111122 
COMPS,ioos:station:USF.COMPS:C13:1,2016-10-05T03:35:00Z,26.0630,-83.0730,1008.37,1111122 
COMPS,ioos:station:USF.COMPS:C13:1,2016-10-05T04:05:00Z,26.0630,-83.0730,1008.31,1111122 
COMPS,ioos:station:USF.COMPS:C13:1,2016-10-05T04:35:00Z,26.0630,-83.0730,1008.32,1111122 
COMPS,ioos:station:USF.COMPS:C13:1,2016-10-05T05:05:00Z,26.0630,-83.0730,1008.09,1111122 
COMPS,ioos:station:USF.COMPS:C13:1,2016-10-05T05:35:00Z,26.0630,-83.0730,1008.04,1111122 
COMPS,ioos:station:USF.COMPS:C13:1,2016-10-05T06:05:00Z,26.0630,-83.0730,1008.05,1111122 
COMPS,ioos:station:USF.COMPS:C13:1,2016-10-05T06:35:00Z,26.0630,-83.0730,1007.99,1111122 
COMPS,ioos:station:USF.COMPS:C13:1,2016-10-05T07:05:00Z,26.0630,-83.0730,1007.69,1111122 
COMPS,ioos:station:USF.COMPS:C13:1,2016-10-05T07:35:00Z,26.0630,-83.0730,1007.5,1111122 
COMPS,ioos:station:USF.COMPS:C13:1,2016-10-05T10:05:00Z,26.0630,-83.0730,1007.5,1111122 
COMPS,ioos:station:USF.COMPS:C13:1,2016-10-05T10:35:00Z,26.0630,-83.0730,1007.78,1111122 
COMPS,ioos:station:USF.COMPS:C13:1,2016-10-05T11:05:00Z,26.0630,-83.0730,1008.11,1111122 
COMPS,ioos:station:USF.COMPS:C13:1,2016-10-05T11:35:00Z,26.0630,-83.0730,1008.24,1111122 
COMPS,ioos:station:USF.COMPS:C13:1,2016-10-05T12:05:00Z,26.0630,-83.0730,1008.53,1111122 
COMPS,ioos:station:USF.COMPS:C13:1,2016-10-05T12:35:00Z,26.0630,-83.0730,1008.84,1111122 
COMPS,ioos:station:USF.COMPS:C13:1,2016-10-05T14:05:00Z,26.0630,-83.0730,1009.55,1111122 
COMPS,ioos:station:USF.COMPS:C13:1,2016-10-05T14:35:00Z,26.0630,-83.0730,1009.77,1111122 
COMPS,ioos:station:USF.COMPS:C13:1,2016-10-05T15:05:00Z,26.0630,-83.0730,1009.79,1111122 
COMPS,ioos:station:USF.COMPS:C13:1,2016-10-05T15:35:00Z,26.0630,-83.0730,1009.79,1111122 
COMPS,ioos:station:USF.COMPS:C13:1,2016-10-05T16:05:00Z,26.0630,-83.0730,1009.81,1111122 
COMPS,ioos:station:USF.COMPS:C13:1,2016-10-05T16:35:00Z,26.0630,-83.0730,1009.57,1111122 
COMPS,ioos:station:USF.COMPS:C13:1,2016-10-05T17:05:00Z,26.0630,-83.0730,1009.31,1111122 
COMPS,ioos:station:USF.COMPS:C13:1,2016-10-05T17:35:00Z,26.0630,-83.0730,1008.86,1111122 
COMPS,ioos:station:USF.COMPS:C13:1,2016-10-05T18:05:00Z,26.0630,-83.0730,1008.34,1111122 
COMPS,ioos:station:USF.COMPS:C13:1,2016-10-05T18:35:00Z,26.0630,-83.0730,1008.27,1111122 
COMPS,ioos:station:USF.COMPS:C13:1,2016-10-05T19:05:00Z,26.0630,-83.0730,1007.85,1111122 
COMPS,ioos:station:USF.COMPS:C13:1,2016-10-05T19:35:00Z,26.0630,-83.0730,1007.5,1111122 
COMPS,ioos:station:USF.COMPS:C13:1,2016-10-05T20:05:00Z,26.0630,-83.0730,1007.5,1111122 
COMPS,ioos:station:USF.COMPS:C13:1,2016-10-05T20:35:00Z,26.0630,-83.0730,1007.31,1111122 
COMPS,ioos:station:USF.COMPS:C13:1,2016-10-05T21:05:00Z,26.0630,-83.0730,1007.09,1111122 
COMPS,ioos:station:USF.COMPS:C13:1,2016-10-05T21:35:00Z,26.0630,-83.0730,1006.83,1111122 
COMPS,ioos:station:USF.COMPS:C13:1,2016-10-05T22:05:00Z,26.0630,-83.0730,1006.62,1111122 
COMPS,ioos:station:USF.COMPS:C13:1,2016-10-05T22:35:00Z,26.0630,-83.0730,1006.72,1111122 
COMPS,ioos:station:USF.COMPS:C13:1,2016-10-05T23:05:00Z,26.0630,-83.0730,1006.88,1111122 
COMPS,ioos:station:USF.COMPS:C13:1,2016-10-05T23:35:00Z,26.0630,-83.0730,1006.96,1111122 
COMPS,ioos:station:USF.COMPS:C13:1,2016-10-06T00:05:00Z,26.0630,-83.0730,1007.32,1111122 
COMPS,ioos:station:USF.COMPS:C13:1,2016-10-06T00:35:00Z,26.0630,-83.0730,1007.66,1111122 
COMPS,ioos:station:USF.COMPS:C13:1,2016-10-06T01:05:00Z,26.0630,-83.0730,1007.57,1111122 
COMPS,ioos:station:USF.COMPS:C13:1,2016-10-06T01:35:00Z,26.0630,-83.0730,1007.75,1111122 
COMPS,ioos:station:USF.COMPS:C13:1,2016-10-06T02:05:00Z,26.0630,-83.0730,1007.55,1111122 
COMPS,ioos:station:USF.COMPS:C13:1,2016-10-06T02:35:00Z,26.0630,-83.0730,1007.47,1111122 
COMPS,ioos:station:USF.COMPS:C13:1,2016-10-06T03:05:00Z,26.0630,-83.0730,1007.65,1111122 
COMPS,ioos:station:USF.COMPS:C13:1,2016-10-06T03:35:00Z,26.0630,-83.0730,1007.59,1111122 
COMPS,ioos:station:USF.COMPS:C13:1,2016-10-06T04:05:00Z,26.0630,-83.0730,1007.65,1111122 
COMPS,ioos:station:USF.COMPS:C13:1,2016-10-06T04:35:00Z,26.0630,-83.0730,1007.51,1111122 
COMPS,ioos:station:USF.COMPS:C13:1,2016-10-06T05:05:00Z,26.0630,-83.0730,1007.26,1111122 
COMPS,ioos:station:USF.COMPS:C13:1,2016-10-06T05:35:00Z,26.0630,-83.0730,1007.31,1111122 
COMPS,ioos:station:USF.COMPS:C13:1,2016-10-06T06:05:00Z,26.0630,-83.0730,1007.0,1111122 
COMPS,ioos:station:USF.COMPS:C13:1,2016-10-06T06:35:00Z,26.0630,-83.0730,1007.01,1111122 
COMPS,ioos:station:USF.COMPS:C13:1,2016-10-06T08:05:00Z,26.0630,-83.0730,1006.1,1111122 
COMPS,ioos:station:USF.COMPS:C13:1,2016-10-06T08:35:00Z,26.0630,-83.0730,1005.9,1111122 
COMPS,ioos:station:USF.COMPS:C13:1,2016-10-06T11:05:00Z,26.0630,-83.0730,1006.69,1111122 
COMPS,ioos:station:USF.COMPS:C13:1,2016-10-06T11:35:00Z,26.0630,-83.0730,1006.63,1111122 
COMPS,ioos:station:USF.COMPS:C13:1,2016-10-06T14:05:00Z,26.0630,-83.0730,1006.96,1111122 
COMPS,ioos:station:USF.COMPS:C13:1,2016-10-06T14:35:00Z,26.0630,-83.0730,1007.08,1111122 
COMPS,ioos:station:USF.COMPS:C13:1,2016-10-06T15:05:00Z,26.0630,-83.0730,1006.96,1111122 
COMPS,ioos:station:USF.COMPS:C13:1,2016-10-06T15:35:00Z,26.0630,-83.0730,1007.0,1111122 
COMPS,ioos:station:USF.COMPS:C13:1,2016-10-06T16:05:00Z,26.0630,-83.0730,1006.93,1111122 
COMPS,ioos:station:USF.COMPS:C13:1,2016-10-06T16:35:00Z,26.0630,-83.0730,1006.59,1111122 
COMPS,ioos:station:USF.COMPS:C13:1,2016-10-06T17:05:00Z,26.0630,-83.0730,1006.32,1111122 
COMPS,ioos:station:USF.COMPS:C13:1,2016-10-06T17:35:00Z,26.0630,-83.0730,1005.99,1111122 
COMPS,ioos:station:USF.COMPS:C13:1,2016-10-06T18:05:00Z,26.0630,-83.0730,1005.71,1111122 
COMPS,ioos:station:USF.COMPS:C13:1,2016-10-06T18:35:00Z,26.0630,-83.0730,1005.11,1111122 
COMPS,ioos:station:USF.COMPS:C13:1,2016-10-06T19:05:00Z,26.0630,-83.0730,1004.65,1111122 
COMPS,ioos:station:USF.COMPS:C13:1,2016-10-06T19:35:00Z,26.0630,-83.0730,1004.23,1111122 
COMPS,ioos:station:USF.COMPS:C13:1,2016-10-06T20:05:00Z,26.0630,-83.0730,1004.07,1111122 
COMPS,ioos:station:USF.COMPS:C13:1,2016-10-06T20:35:00Z,26.0630,-83.0730,1003.89,1111122 
COMPS,ioos:station:USF.COMPS:C13:1,2016-10-06T21:05:00Z,26.0630,-83.0730,1004.2,1111122 
COMPS,ioos:station:USF.COMPS:C13:1,2016-10-06T21:35:00Z,26.0630,-83.0730,1004.16,1111122 
COMPS,ioos:station:USF.COMPS:C13:1,2016-10-06T22:05:00Z,26.0630,-83.0730,1004.22,1111122 
COMPS,ioos:station:USF.COMPS:C13:1,2016-10-06T22:35:00Z,26.0630,-83.0730,1004.37,1111122 
COMPS,ioos:station:USF.COMPS:C13:1,2016-10-06T23:05:00Z,26.0630,-83.0730,1004.2,1111122 
COMPS,ioos:station:USF.COMPS:C13:1,2016-10-06T23:35:00Z,26.0630,-83.0730,1003.89,1111122 
COMPS,ioos:station:USF.COMPS:C13:1,2016-10-07T00:05:00Z,26.0630,-83.0730,1004.19,1111122 
COMPS,ioos:station:USF.COMPS:C13:1,2016-10-07T00:35:00Z,26.0630,-83.0730,1004.28,1111122 
COMPS,ioos:station:USF.COMPS:C13:1,2016-10-07T01:05:00Z,26.0630,-83.0730,1004.39,1111122 
COMPS,ioos:station:USF.COMPS:C13:1,2016-10-07T01:35:00Z,26.0630,-83.0730,1004.37,1111122 
COMPS,ioos:station:USF.COMPS:C13:1,2016-10-07T02:05:00Z,26.0630,-83.0730,1004.3,1111122 
COMPS,ioos:station:USF.COMPS:C13:1,2016-10-07T02:35:00Z,26.0630,-83.0730,1004.74,1111122 
COMPS,ioos:station:USF.COMPS:C13:1,2016-10-07T03:05:00Z,26.0630,-83.0730,1004.63,1111122 
COMPS,ioos:station:USF.COMPS:C13:1,2016-10-07T03:35:00Z,26.0630,-83.0730,1004.53,1111122 
COMPS,ioos:station:USF.COMPS:C13:1,2016-10-07T04:05:00Z,26.0630,-83.0730,1004.57,1111122 
COMPS,ioos:station:USF.COMPS:C13:1,2016-10-07T04:35:00Z,26.0630,-83.0730,1004.33,1111122 
COMPS,ioos:station:USF.COMPS:C13:1,2016-10-07T05:05:00Z,26.0630,-83.0730,1004.14,1111122 
COMPS,ioos:station:USF.COMPS:C13:1,2016-10-07T05:35:00Z,26.0630,-83.0730,1003.69,1111122 
COMPS,ioos:station:USF.COMPS:C13:1,2016-10-07T06:05:00Z,26.0630,-83.0730,1003.6,1111122 
COMPS,ioos:station:USF.COMPS:C13:1,2016-10-07T06:35:00Z,26.0630,-83.0730,1003.36,1111122 
COMPS,ioos:station:USF.COMPS:C13:1,2016-10-07T07:05:00Z,26.0630,-83.0730,1003.1,1111122 
COMPS,ioos:station:USF.COMPS:C13:1,2016-10-07T07:35:00Z,26.0630,-83.0730,1002.91,1111122 
COMPS,ioos:station:USF.COMPS:C13:1,2016-10-07T08:05:00Z,26.0630,-83.0730,1002.51,1111122 
COMPS,ioos:station:USF.COMPS:C13:1,2016-10-07T08:35:00Z,26.0630,-83.0730,1002.72,1111122 
COMPS,ioos:station:USF.COMPS:C13:1,2016-10-07T09:05:00Z,26.0630,-83.0730,1002.9,1111122 
COMPS,ioos:station:USF.COMPS:C13:1,2016-10-07T09:35:00Z,26.0630,-83.0730,1003.16,1111122 
COMPS,ioos:station:USF.COMPS:C13:1,2016-10-07T10:05:00Z,26.0630,-83.0730,1003.38,1111122 
COMPS,ioos:station:USF.COMPS:C13:1,2016-10-07T10:35:00Z,26.0630,-83.0730,1003.38,1111122 
COMPS,ioos:station:USF.COMPS:C13:1,2016-10-07T11:05:00Z,26.0630,-83.0730,1003.61,1111122 
COMPS,ioos:station:USF.COMPS:C13:1,2016-10-07T11:35:00Z,26.0630,-83.0730,1003.59,1111122 
COMPS,ioos:station:USF.COMPS:C13:1,2016-10-07T12:05:00Z,26.0630,-83.0730,1004.04,1111122 
COMPS,ioos:station:USF.COMPS:C13:1,2016-10-07T12:35:00Z,26.0630,-83.0730,1004.2,1111122 
COMPS,ioos:station:USF.COMPS:C13:1,2016-10-07T13:05:00Z,26.0630,-83.0730,1004.67,1111122 
COMPS,ioos:station:USF.COMPS:C13:1,2016-10-07T13:35:00Z,26.0630,-83.0730,1004.99,1111122 
COMPS,ioos:station:USF.COMPS:C13:1,2016-10-07T14:05:00Z,26.0630,-83.0730,1005.38,1111122 
COMPS,ioos:station:USF.COMPS:C13:1,2016-10-07T14:35:00Z,26.0630,-83.0730,1005.72,1111122 
COMPS,ioos:station:USF.COMPS:C13:1,2016-10-07T15:05:00Z,26.0630,-83.0730,1006.09,1111122 
COMPS,ioos:station:USF.COMPS:C13:1,2016-10-07T15:35:00Z,26.0630,-83.0730,1006.13,1111122 
COMPS,ioos:station:USF.COMPS:C13:1,2016-10-07T16:05:00Z,26.0630,-83.0730,1006.14,1111122 
COMPS,ioos:station:USF.COMPS:C13:1,2016-10-07T16:35:00Z,26.0630,-83.0730,1006.08,1111122 
COMPS,ioos:station:USF.COMPS:C13:1,2016-10-07T17:05:00Z,26.0630,-83.0730,1006.12,1111122 
COMPS,ioos:station:USF.COMPS:C13:1,2016-10-07T17:35:00Z,26.0630,-83.0730,1006.19,1111122 
COMPS,ioos:station:USF.COMPS:C13:1,2016-10-07T18:05:00Z,26.0630,-83.0730,1006.0,1111122 
COMPS,ioos:station:USF.COMPS:C13:1,2016-10-07T18:35:00Z,26.0630,-83.0730,1005.58,1111122 
COMPS,ioos:station:USF.COMPS:C13:1,2016-10-07T19:05:00Z,26.0630,-83.0730,1005.31,1111122 
COMPS,ioos:station:USF.COMPS:C13:1,2016-10-07T19:35:00Z,26.0630,-83.0730,1005.22,1111122 
COMPS,ioos:station:USF.COMPS:C13:1,2016-10-07T20:05:00Z,26.0630,-83.0730,1004.99,1111122 
COMPS,ioos:station:USF.COMPS:C13:1,2016-10-07T20:35:00Z,26.0630,-83.0730,1004.89,1111122 
COMPS,ioos:station:USF.COMPS:C13:1,2016-10-07T21:05:00Z,26.0630,-83.0730,1004.78,1111122 
COMPS,ioos:station:USF.COMPS:C13:1,2016-10-07T21:35:00Z,26.0630,-83.0730,1004.81,1111122 
COMPS,ioos:station:USF.COMPS:C13:1,2016-10-07T22:05:00Z,26.0630,-83.0730,1005.19,1111122 
COMPS,ioos:station:USF.COMPS:C13:1,2016-10-07T22:35:00Z,26.0630,-83.0730,1005.47,1111122 
COMPS,ioos:station:USF.COMPS:C13:1,2016-10-07T23:05:00Z,26.0630,-83.0730,1005.66,1111122 
COMPS,ioos:station:USF.COMPS:C13:1,2016-10-07T23:35:00Z,26.0630,-83.0730,1005.62,1111122 
COMPS,ioos:station:USF.COMPS:C13:1,2016-10-08T00:05:00Z,26.0630,-83.0730,1005.91,1111122 
COMPS,ioos:station:USF.COMPS:C13:1,2016-10-08T00:35:00Z,26.0630,-83.0730,1006.4,1111122 
COMPS,ioos:station:USF.COMPS:C13:1,2016-10-08T01:05:00Z,26.0630,-83.0730,1006.92,1111122 
COMPS,ioos:station:USF.COMPS:C13:1,2016-10-08T01:35:00Z,26.0630,-83.0730,1006.98,1111122 
COMPS,ioos:station:USF.COMPS:C13:1,2016-10-08T02:05:00Z,26.0630,-83.0730,1007.5,1111122 
COMPS,ioos:station:USF.COMPS:C13:1,2016-10-08T02:35:00Z,26.0630,-83.0730,1007.63,1111122 
COMPS,ioos:station:USF.COMPS:C13:1,2016-10-08T03:05:00Z,26.0630,-83.0730,1007.54,1111122 